Location: Asheville, NC
(35.6000°N, 82.5500°W)
Time: 00:19:57
(UTC-04:00)

Vanguard 2 Rocket - Pass Details

Date: 11 February 2018
Orbit: 554 x 3327 km, 32.9° (Epoch: 21 May)

Event Time Altitude Azimuth Distance (km) Brightness Sun altitude
Rises 06:40:44 0° 282° (WNW) 7,318 - -8.8°
Exits shadow 06:45:06 - 280° (W) 6,409 10.5 -7.9°
Reaches altitude 10° 06:45:51 10° 280° (W) 6,253 10.4 -7.8°
Maximum altitude 07:04:48 61° 207° (SSW) 2,898 9.4 -4.0°
Drops below altitude 10° 07:17:02 10° 130° (SE) 4,226 11.7 -1.6°
Sets 07:19:48 0° 126° (SE) 4,910 12.3 -1.1°
